Madera, CA

5:59 PM PDT on March 25, 2017 (GMT -0700)
Madera Municipal

Weather History for KMAE - April, 2013

Change the Weather History Date:

Sunday, April 14, 2013

  Actual Average Record
Temperature  
Mean Temperature 62 °F 59 °F  
Max Temperature 77 °F 74 °F 90 °F (2002)
Min Temperature 46 °F 45 °F 33 °F (2005)
Degree Days  
Heating Degree Days 3    
Month to date heating degree days 52  
Since 1 July heating degree days 2253  
Cooling Degree Days 0    
Month to date cooling degree days 0  
Year to date cooling degree days 2  
Growing Degree Days 12 (Base 50)    
Moisture  
Dew Point 37 °F    
Average Humidity 48    
Maximum Humidity 80    
Minimum Humidity 15    
Precipitation  
Precipitation 0.00 in 0.03 in 0.41 in (2006)
Month to date precipitation 0.57 0.45  
Year to date precipitation 3.46 6.83  
Since 1 July precipitation 8.16  
Snow  
Snow 0.00 in - - ()
Month to date snowfall 0.0  
Since 1 July snowfall 0.0  
Snow Depth 0.00 in    
Sea Level Pressure  
Sea Level Pressure 29.82 in    
Wind  
Wind Speed 11 mph (NW)    
Max Wind Speed 20 mph    
Max Gust Speed 25 mph    
Visibility 10 miles    
Events      
T = Trace of Precipitation, MM = Missing Value Source: NWS Daily Summary

Daily Weather History Graph

Daily Weather History Graph

Search for Another Location

Airport or City:

Trip Planner

Search our weather history database for the weather conditions in past years. The results will help you decide how hot, cold, wet, or windy it might be!

Date:

Astronomy

Apr. 14, 2013 Rise Set
Actual Time 6:27 AM PDT 7:34 PM PDT
Civil Twilight 6:00 AM PDT 8:01 PM PDT
Nautical Twilight 5:28 AM PDT 8:33 PM PDT
Astronomical Twilight 4:55 AM PDT 9:06 PM PDT
Moon 9:12 AM PDT (4/14) 11:47 PM PDT (4/14)
Length of Visible Light 14h 01m
Length of Day
13h 07m
Waxing Crescent, 18% of the Moon is Illuminated
Apr 14
Waxing Crescent
Apr 18
First Quarter
Apr 25
Full
May 2
Last Quarter
May 9
New

Hourly Weather History & Observations

Time (PDT) Temp. Dew Point Humidity Pressure Visibility Wind Dir Wind Speed Gust Speed Precip Events Conditions
12:53 AM 54.0 °F 43.0 °F 66% 29.81 in 10.0 mi WNW 10.4 mph - N/A   Clear
1:53 AM 52.0 °F 43.0 °F 71% 29.81 in 10.0 mi West 8.1 mph - N/A   Clear
2:53 AM 51.1 °F 43.0 °F 74% 29.81 in 10.0 mi WNW 6.9 mph - N/A   Clear
3:53 AM 50.0 °F 43.0 °F 77% 29.80 in 10.0 mi WNW 9.2 mph - N/A   Clear
5:53 AM 48.0 °F 43.0 °F 83% 29.82 in 10.0 mi WNW 5.8 mph - N/A   Clear
6:53 AM 48.0 °F 43.0 °F 83% 29.83 in 9.0 mi NW 5.8 mph - N/A   Clear
7:53 AM 52.0 °F 43.0 °F 71% 29.83 in 10.0 mi NW 10.4 mph - N/A   Clear
8:53 AM 59.0 °F 39.0 °F 48% 29.86 in 10.0 mi NNW 15.0 mph - N/A   Clear
9:53 AM 63.0 °F 37.0 °F 38% 29.87 in 10.0 mi NW 15.0 mph - N/A   Clear
10:53 AM 66.0 °F 36.0 °F 33% 29.88 in 10.0 mi WNW 13.8 mph - N/A   Clear
11:53 AM 69.1 °F 35.1 °F 29% 29.86 in 10.0 mi NW 10.4 mph 16.1 mph N/A   Clear
12:53 PM 73.9 °F 34.0 °F 23% 29.84 in 10.0 mi WNW 9.2 mph - N/A   Clear
1:53 PM 75.9 °F 26.1 °F 16% 29.83 in 10.0 mi NW 13.8 mph 21.9 mph N/A   Clear
2:53 PM 75.9 °F 25.0 °F 15% 29.81 in 10.0 mi WNW 11.5 mph - N/A   Clear
3:53 PM 77.0 °F 28.0 °F 17% 29.79 in 10.0 mi WNW 15.0 mph 20.7 mph N/A   Clear
4:53 PM 77.0 °F 26.1 °F 15% 29.77 in 10.0 mi NNW 17.3 mph 25.3 mph N/A   Clear
5:53 PM 75.0 °F 28.0 °F 18% 29.77 in 10.0 mi NW 12.7 mph 20.7 mph N/A   Clear
6:53 PM 71.1 °F 32.0 °F 24% 29.77 in 10.0 mi NW 10.4 mph - N/A   Clear
7:53 PM 64.9 °F 35.1 °F 33% 29.78 in 10.0 mi NW 8.1 mph - N/A   Clear
8:53 PM 60.1 °F 42.1 °F 51% 29.80 in 10.0 mi West 8.1 mph - N/A   Clear
9:53 PM 61.0 °F 41.0 °F 48% 29.82 in 10.0 mi NW 11.5 mph - N/A   Clear
10:53 PM 60.1 °F 41.0 °F 49% 29.83 in 10.0 mi NNW 12.7 mph 17.3 mph N/A   Clear
11:53 PM 55.9 °F 43.0 °F 62% 29.83 in 10.0 mi WNW 6.9 mph - N/A   Clear